TOKYO_INTL_AIRPORT current weather conditions

sailwx.info

Wind from 070 at 4 knots

Air temperature 8.0° C
Visibility: greater than 5.4 NM
Dewpoint -2.0° C

Last reported at 2017-Jan-18 04:30 UTC.
Time now 2017-Jan-18 05:57 UTC

Location: N 35°33' E 139°47'.
View on Google Maps.

See reports from other nearby stations

  
Tides and Currents Weather Stations Pressure Air Temp Water Temp Dewpoint Dewpoint Depression Visibility Wind Speed Wind Dir Waves Ship Positions
date/time (UTC)wind fromknots sea level pressurealtimeterstation pressurevisibilityair tempwater tempwave heightnotes
2017-Jan-18 04:30 070 4 5.4 8.0
2017-Jan-18 04:00 040 5 5.4 8.0
2017-Jan-18 03:30 070 6 5.4 8.0
2017-Jan-18 03:00 070 6 5.4 7.0
2017-Jan-18 02:30 060 5 5.4 7.0
2017-Jan-18 02:00 040 6 5.4 7.0
2017-Jan-18 01:30 050 8 5.4 6.0
2017-Jan-18 01:00 020 9 5.4 6.0
2017-Jan-18 00:30 350 8 5.4 6.0
2017-Jan-18 00:00 340 9 5.4 6.0
2017-Jan-17 23:30 340 12 5.4 5.0
2017-Jan-17 23:00 010 9 5.4 4.0
2017-Jan-17 22:30 020 8 5.4 4.0
2017-Jan-17 22:00 030 8 5.4 4.0
2017-Jan-17 21:30 360 8 5.4 5.0
2017-Jan-17 21:00 310 5 5.4 3.0
2017-Jan-17 20:30 280 2 5.4 3.0
2017-Jan-17 20:00 300 5 5.4 3.0
2017-Jan-17 19:30 310 6 5.4 3.0
2017-Jan-17 19:00 340 7 5.4 5.0
2017-Jan-17 18:30 340 9 5.4 5.0
2017-Jan-17 18:00 330 7 5.4 5.0
2017-Jan-17 17:30 350 9 5.4 6.0
2017-Jan-17 17:00 360 8 5.4 6.0
2017-Jan-17 16:30 360 6 5.4 6.0
2017-Jan-17 16:00 030 6 5.4 6.0
2017-Jan-17 15:30 030 6 5.4 6.0
2017-Jan-17 14:30 030 5 5.4 6.0
2017-Jan-17 14:00 030 6 5.4 6.0
2017-Jan-17 13:30 040 6 5.4 6.0
2017-Jan-17 13:00 040 9 5.4 7.0
2017-Jan-17 12:30 050 9 5.4 7.0
2017-Jan-17 12:00 050 11 5.4 7.0
2017-Jan-17 11:30 020 7 5.4 8.0
2017-Jan-17 11:00 360 8 5.4 8.0
2017-Jan-17 10:30 350 8 5.4 8.0
2017-Jan-17 10:00 330 9 5.4 8.0
2017-Jan-17 09:30 340 12 5.4 8.0
2017-Jan-17 09:00 010 11 5.4 9.0
2017-Jan-17 08:30 010 11 5.4 9.0
2017-Jan-17 08:00 360 9 5.4 9.0
2017-Jan-17 07:30 350 9 5.4 9.0
2017-Jan-17 07:00 010 9 5.410.0
2017-Jan-17 06:30 350 7 5.410.0
2017-Jan-17 06:00 350 8 5.410.0
2017-Jan-17 05:30 360 11 5.410.0
2017-Jan-17 05:00 360 7 5.410.0
2017-Jan-17 04:30 350 8 5.410.0
2017-Jan-17 04:00 360 9 5.410.0
2017-Jan-17 03:30 360 8 5.4 9.0
2017-Jan-17 03:00 030 4 5.4 9.0
2017-Jan-17 02:30 020 8 5.4 8.0
2017-Jan-17 02:00 030 6 5.4 7.0
2017-Jan-17 01:30 040 5 5.4 7.0
2017-Jan-17 01:00 040 5 5.4 6.0
2017-Jan-17 00:30 010 5 5.4 6.0
2017-Jan-17 00:00 020 7 5.4 5.0
2017-Jan-16 23:30 010 8 5.4 5.0
2017-Jan-16 23:00 030 11 5.4 5.0
2017-Jan-16 22:30 310 6 5.4 4.0
2017-Jan-16 22:00 320 6 5.4 3.0
2017-Jan-16 21:30 280 5 5.4 3.0
2017-Jan-16 21:00 290 5 5.4 3.0
2017-Jan-16 20:30 310 6 5.4 3.0
2017-Jan-16 20:00 310 7 5.4 3.0
2017-Jan-16 19:30 320 8 5.4 3.0
2017-Jan-16 19:00 320 12 5.4 4.0
2017-Jan-16 18:30 320 11 5.4 4.0
2017-Jan-16 18:00 320 11 5.4 4.0
2017-Jan-16 17:30 330 12 5.4 4.0
2017-Jan-16 17:00 020 11 5.4 5.0
2017-Jan-16 16:30 330 8 5.4 5.0
2017-Jan-16 16:00 320 8 5.4 5.0
2017-Jan-16 15:30 320 8 5.4 5.0
2017-Jan-16 15:00 320 13 5.4 5.0
2017-Jan-16 14:30 320 14 5.4 5.0
2017-Jan-16 14:00 310 12 5.4 4.0
2017-Jan-16 13:30 310 12 5.4 5.0
2017-Jan-16 13:00 310 12 5.4 5.0
2017-Jan-16 12:30 310 13 5.4 5.0
2017-Jan-16 12:00 310 14 5.4 5.0
2017-Jan-16 11:30 310 13 5.4 5.0
2017-Jan-16 11:00 310 12 5.4 5.0
2017-Jan-16 10:30 310 13 5.4 5.0
2017-Jan-16 10:00 320 13 5.4 5.0
2017-Jan-16 09:30 320 11 5.4 5.0
2017-Jan-16 09:00 320 9 5.4 6.0
2017-Jan-16 08:30 310 11 5.4 6.0
2017-Jan-16 08:00 330 9 5.4 6.0
2017-Jan-16 07:30 320 9 5.4 7.0
2017-Jan-16 07:00 320 11 5.4 8.0
2017-Jan-16 06:30 320 18 5.4 8.0
2017-Jan-16 06:06 320 14 gusting 26 5.4 8.0
2017-Jan-16 06:00 330 13 5.4 8.0
2017-Jan-16 05:48 310 17 gusting 27 5.4 8.0
2017-Jan-16 05:30 310 19 5.4 8.0
2017-Jan-16 05:13 310 17 gusting 27 5.4 8.0
2017-Jan-16 05:00 310 17 5.4 8.0